Regional Weather Roundup
Issued by NWS

Home | Current Version | Previous Version | Graphics & Text | Print | Product List | Glossary On
Versions: 1 2 3 4 5 6 7 8 9 10 11 12 13 14 15 16 17 18 19 20 21 22 23 24 25 26 27 28 29 30 31 32 33 34 35 36 37 38 39 40 41 42 43 44 45 46 47 48 49 50
326
ASUS45 KPSR 280910
RWRAZ

ARIZONA REGIONAL HOURLY WEATHER ROUNDUP
NATIONAL WEATHER SERVICE TUCSON AZ
200 AM MST WED JUN 28 2017

NOTE: FAIR INDICATES FEW OR NO CLOUDS BELOW 12,000 FEET WITH NO
SIGNIFICANT WEATHER AND/OR OBSTRUCTIONS TO VISIBILITY.

AZZ001>003-036-281000-
NORTHWEST ARIZONA

CITY           SKY/WX    TMP DP  RH WIND       PRES   REMARKS
BULLHEAD CITY  CLEAR     91  19   7 SE13      29.63R
KINGMAN        CLEAR     75  17  11 S13       29.85F
$$

AZZ004>008-015-016-018-281000-
NORTH CENTRAL ARIZONA

CITY           SKY/WX    TMP DP  RH WIND       PRES   REMARKS
GRAND CANYON   CLEAR     42  14  32 CALM      30.12F
PRESCOTT       CLEAR     65  17  15 S9        30.01F
FLAGSTAFF      CLEAR     46  11  24 CALM      30.16F
PAYSON         CLOUDY    64  19  17 CALM      30.08S
PAGE           CLEAR     77  19  11 S5        29.86S
$$

AZZ009>014-017-281000-
NORTHEAST ARIZONA

CITY           SKY/WX    TMP DP  RH WIND       PRES   REMARKS
WINSLOW        CLEAR     69  18  14 SW13      29.99F
SAINT JOHNS    CLEAR     67  16  14 SW10      30.06F
WINDOW ROCK    CLEAR     61  18  18 VRB3      30.12S
SHOW LOW       CLEAR     63  14  15 S13       30.15F
$$

AZZ023-281000-
GREATER PHOENIX AREA

CITY           SKY/WX    TMP DP  RH WIND       PRES   REMARKS
PHOENIX        CLEAR     93  44  18 W6        29.73S
BUCKEYE        SUNNY     82  41  23 CALM      29.75S
LUKE AFB       CLEAR     90  46  21 SW18      29.72S
DEER VALLEY    CLEAR     87  46  24 SW6       29.76S
SCOTTSDALE     CLEAR     89  44  20 NE3       29.79R
MESA-GATEWAY   CLEAR     81  32  17 SE7       29.78S
$$

AZZ027-028-281000-
SOUTHWEST MARICOPA COUNTY AND PINAL COUNTY

CITY           SKY/WX    TMP DP  RH WIND       PRES   REMARKS
CASA GRANDE    CLEAR     83  49  30 SW9       29.78F
$$

AZZ503-504-507>509-281000-
SOUTHEAST ARIZONA

CITY           SKY/WX    TMP DP  RH WIND       PRES   REMARKS
TUCSON         CLEAR     83  42  23 SE8       29.90F
DAVIS-MONTHAN  CLEAR     81  43  25 S7        29.89F
NOGALES        CLEAR     74  36  25 S7        30.02F
SIERRA VISTA   CLEAR     79  32  18 W7        30.07S
DOUGLAS        CLEAR     72  53  51 SE7       30.02F
SAFFORD        CLEAR     75  23  14 N8        29.88S
$$

AZZ020-021-025-026-031-281000-
SOUTHWEST ARIZONA

CITY           SKY/WX    TMP DP  RH WIND       PRES   REMARKS
YUMA           CLEAR     81  61  50 S6        29.70F
$$

CAZ031-033-041-043-047-048-061-281000-
SOUTHERN CALIFORNIA

CITY           SKY/WX    TMP DP  RH WIND       PRES   REMARKS
DOWNTOWN L.A.  CLEAR     64  58  80 CALM      29.85F
L.A. AIRPORT   PTCLDY    63  59  87 S14       29.85S
SAN DIEGO      MOCLDY    64  60  87 NW6       29.88F
BURBANK        CLEAR     66  56  70 E8        29.86R
ONTARIO        CLEAR     66  51  58 CALM      29.86F
RIVERSIDE      CLEAR     67  51  56 CALM      29.86F
PALM SPRINGS   CLEAR     83  33  16 S3        29.68F
EL CENTRO NAS  CLEAR     87  12   6 SW14      29.67F
IMPERIAL       CLEAR     82  28  14 W10       29.65F
BLYTHE         CLEAR     83  31  15 S9        29.67R
NEEDLES        CLEAR     94  23   8 W16       29.66S
$$

NVZ020-UTZ003-281000-
SOUTHERN NEVADA-UTAH

CITY           SKY/WX    TMP DP  RH WIND       PRES   REMARKS
LAS VEGAS      CLEAR     88  21   8 S15       29.68F
SALT LAKE CITY CLEAR     69  38  32 SW6       29.84S
$$

NMZ009-TXZ055-281000-
NEW MEXICO-WEST TEXAS

CITY           SKY/WX    TMP DP  RH WIND       PRES   REMARKS
ALBUQUERQUE    PTCLDY    73  35  25 S14       30.02F
EL PASO        PTCLDY    81  55  40 SE7       29.95F
$$


........................KEY........................
SKY/WX - SKY CONDITION/WEATHER
TMP    - TEMPERATURE IN FAHRENHEIT
DP     - DEWPOINT IN FAHRENHEIT
RH     - RELATIVE HUMIDITY IN PERCENT
WIND   - DIRECTION AND SPEED IN MILES PER HOUR (MPH)
VRB    - VARIABLE WIND DIRECTION
PRES   - MEAN SEA LEVEL PRESSURE IN INCHES OF MERCURY
         F - FALLING PRESSURE   R - RISING PRESSURE
         S - STEADY PRESSURE
VSB    - VISIBILITY IN MILES
HX     - HEAT INDEX IN FAHRENHEIT
WCI    - WIND CHILL INDEX IN FAHRENHEIT
TC     - TEMPERATURE IN CELSIUS WHICH IS ALSO KNOWN AS
         TEMPERATURE IN CENTIGRADE
AFB    - AIR FORCE BASE
         LUKE AFB IS LUKE AIR FORCE BASE
         DAVIS-MONTHAN IS DAVIS-MONTHAN AIR FORCE BASE
NAS    - NAVAL AIR STATION
         EL CENTRO NAS IS EL CENTRO NAVAL AIR STATION
N/A    - NOT AVAILABLE





USA.gov is the U.S. government's official web portal to all federal, state and local government web resources and services.